This is the latest recevied weather packets stored in our database for station/object DB0MOE-6. If no packets are shown the sender has not sent any weather packets the latest 10 day(s).
| Time | Temp. | Humidity | Pressure | Rain* | Wind** | Luminosity | Snow |
|---|---|---|---|---|---|---|---|
| 1787889671 | 20° C | 92% | 990.6 hPa | 0 mm | - | - | - |
| 1787889611 | 20° C | 92% | 990.6 hPa | 0 mm | - | - | - |
| 1787889551 | 20° C | 92% | 990.4 hPa | 0 mm | - | - | - |
| 1787889491 | 20° C | 92% | 990.5 hPa | 0 mm | - | - | - |
| 1787889431 | 20° C | 92% | 990.5 hPa | 0 mm | - | - | - |
| 1787889371 | 20° C | 92% | 990.5 hPa | 0 mm | - | - | - |
| 1787889311 | 20° C | 92% | 990.5 hPa | 0 mm | - | - | - |
| 1787889251 | 20° C | 92% | 990.5 hPa | 0 mm | - | - | - |
| 1787889191 | 20° C | 92% | 990.6 hPa | 0 mm | - | - | - |
| 1787889131 | 20° C | 92% | 990.6 hPa | 0 mm | - | - | - |
| 1787889071 | 20° C | 92% | 990.4 hPa | 0 mm | - | - | - |
| 1787889011 | 20° C | 91% | 990.3 hPa | 0 mm | - | - | - |
| 1787888951 | 20° C | 91% | 990.3 hPa | 0.25 mm | - | - | - |
| 1787888891 | 20° C | 91% | 990.4 hPa | 0.25 mm | - | - | - |
| 1787888831 | 20° C | 91% | 990.6 hPa | 0.51 mm | - | - | - |
| 1787888771 | 20° C | 91% | 990.6 hPa | 1.27 mm | - | - | - |
| 1787888713 | 20° C | 91% | 990.6 hPa | 1.52 mm | - | - | - |
| 1787888653 | 20° C | 90% | 990.5 hPa | 2.03 mm | - | - | - |
| 1787888593 | 20° C | 90% | 990.5 hPa | 3.05 mm | - | - | - |
| 1787888533 | 20° C | 90% | 990.5 hPa | 3.3 mm | - | - | - |
| 1787888473 | 20° C | 90% | 990.3 hPa | 4.32 mm | - | - | - |
| 1787888413 | 20° C | 90% | 990.3 hPa | 4.83 mm | - | - | - |
| 1787888353 | 20° C | 90% | 990.5 hPa | 4.83 mm | - | - | - |
| 1787888293 | 20° C | 90% | 990.8 hPa | 4.83 mm | - | - | - |
| 1787888232 | 20° C | 90% | 990.7 hPa | 5.08 mm | - | - | - |
* Rain latest hour (hover to see other rain measurements)
** Current wind speed in m/s (hover to see current wind gust speed)